Fergus Falls, MN

6:15 AM CST on January 23, 2018 (GMT -0600)
Fergus Falls Municipal-Mickelson

Weather History for KFFM - November, 2012

Change the Weather History Date:

Friday, November 2, 2012

  Actual Average Record
Temperature  
Mean Temperature 30 °F -  
Max Temperature 35 °F 44 °F 70 °F (1990)
Min Temperature 24 °F 27 °F -4 °F (1951)
Degree Days  
Heating Degree Days 36    
Moisture  
Dew Point 24 °F    
Average Humidity 75    
Maximum Humidity 86    
Minimum Humidity 65    
Precipitation  
Precipitation 0.00 in - - ()
Sea Level Pressure  
Sea Level Pressure 30.11 in    
Wind  
Wind Speed 3 mph (ESE)    
Max Wind Speed 9 mph    
Max Gust Speed -    
Visibility 10 miles    
Events      
Averages and records for this station are not official NWS values.
T = Trace of Precipitation, MM = Missing Value Source: NWS Daily Summary

Daily Weather History Graph

Daily Weather History Graph

Search for Another Location

Airport or City:

Trip Planner

Search our weather history database for the weather conditions in past years. The results will help you decide how hot, cold, wet, or windy it might be!

Date:

Astronomy

Nov. 02, 2012 Rise Set
Actual Time 8:07 AM CDT 6:07 PM CDT
Civil Twilight 7:36 AM CDT 6:39 PM CDT
Nautical Twilight 7:00 AM CDT 7:14 PM CDT
Astronomical Twilight 6:25 AM CDT 7:49 PM CDT
Moon 8:49 PM CDT (11/2) 11:36 AM CDT (11/2)
Length of Visible Light 11h 02m
Length of Day
9h 59m
Waning Gibbous, 87% of the Moon is Illuminated
Nov 2
Waning Gibbous
Nov 6
Last Quarter
Nov 13
New
Nov 20
First Quarter
Nov 28
Full

Hourly Weather History & Observations

Time (CDT) Temp. Windchill Dew Point Humidity Pressure Visibility Wind Dir Wind Speed Gust Speed Precip Events Conditions
12:13 AM 24.8 °F - 21.2 °F 86% 30.09 in 10.0 mi Calm Calm - N/A   Clear
12:34 AM 26.6 °F - 21.2 °F 80% 30.09 in 10.0 mi Calm Calm - N/A   Clear
12:53 AM 24.8 °F - 21.2 °F 86% 30.09 in 10.0 mi Calm Calm - N/A   Clear
1:13 AM 26.6 °F - 21.2 °F 80% 30.09 in 10.0 mi Calm Calm - N/A   Clear
1:34 AM 24.8 °F 20.5 °F 21.2 °F 86% 30.08 in 10.0 mi East 3.5 mph - N/A   Clear
1:53 AM 26.6 °F - 21.2 °F 80% 30.08 in 10.0 mi Calm Calm - N/A   Clear
2:13 AM 26.6 °F - 21.2 °F 80% 30.09 in 10.0 mi Calm Calm - N/A   Clear
2:33 AM 26.6 °F 22.6 °F 21.2 °F 80% 30.09 in 10.0 mi East 3.5 mph - N/A   Clear
2:53 AM 28.4 °F 23.3 °F 21.2 °F 74% 30.08 in 10.0 mi East 4.6 mph - N/A   Clear
3:13 AM 28.4 °F 22.2 °F 23.0 °F 80% 30.09 in 10.0 mi East 5.8 mph - N/A   Clear
3:33 AM 28.4 °F 21.2 °F 23.0 °F 80% 30.09 in 10.0 mi East 6.9 mph - N/A   Clear
3:53 AM 28.4 °F 22.2 °F 23.0 °F 80% 30.09 in 10.0 mi East 5.8 mph - N/A   Clear
4:13 AM 28.4 °F 21.2 °F 23.0 °F 80% 30.09 in 10.0 mi East 6.9 mph - N/A   Clear
4:33 AM 28.4 °F 22.2 °F 23.0 °F 80% 30.08 in 10.0 mi East 5.8 mph - N/A   Clear
4:53 AM 28.4 °F 22.2 °F 23.0 °F 80% 30.08 in 10.0 mi East 5.8 mph - N/A   Clear
5:13 AM 28.4 °F 24.6 °F 24.8 °F 86% 30.09 in 10.0 mi East 3.5 mph - N/A   Clear
5:33 AM 28.4 °F 23.3 °F 24.8 °F 86% 30.08 in 10.0 mi East 4.6 mph - N/A   Clear
5:53 AM 28.4 °F 24.6 °F 24.8 °F 86% 30.09 in 10.0 mi East 3.5 mph - N/A   Clear
6:13 AM 28.4 °F 22.2 °F 24.8 °F 86% 30.09 in 10.0 mi East 5.8 mph - N/A   Clear
6:33 AM 28.4 °F 24.6 °F 24.8 °F 86% 30.09 in 10.0 mi East 3.5 mph - N/A   Clear
6:53 AM 28.4 °F 24.6 °F 24.8 °F 86% 30.10 in 10.0 mi East 3.5 mph - N/A   Clear
7:13 AM 28.4 °F 22.2 °F 24.8 °F 86% 30.10 in 10.0 mi East 5.8 mph - N/A   Clear
7:33 AM 28.4 °F 21.2 °F 24.8 °F 86% 30.10 in 10.0 mi East 6.9 mph - N/A   Clear
7:53 AM 28.4 °F 22.2 °F 24.8 °F 86% 30.10 in 10.0 mi East 5.8 mph - N/A   Clear
8:13 AM 28.4 °F 22.2 °F 24.8 °F 86% 30.10 in 10.0 mi East 5.8 mph - N/A   Clear
8:53 AM 30.2 °F 22.6 °F 24.8 °F 80% 30.12 in 10.0 mi East 8.1 mph - N/A   Clear
9:13 AM 30.2 °F 21.9 °F 24.8 °F 80% 30.14 in 10.0 mi ESE 9.2 mph - N/A   Clear
9:33 AM 30.2 °F 23.4 °F 24.8 °F 80% 30.16 in 10.0 mi ESE 6.9 mph - N/A   Clear
9:53 AM 30.2 °F 23.4 °F 24.8 °F 80% 30.16 in 10.0 mi ESE 6.9 mph - N/A   Clear
10:13 AM 30.2 °F 24.3 °F 24.8 °F 80% 30.15 in 10.0 mi ESE 5.8 mph - N/A   Clear
10:33 AM 30.2 °F 23.4 °F 24.8 °F 80% 30.14 in 10.0 mi ESE 6.9 mph - N/A   Clear
10:53 AM 30.2 °F 21.9 °F 24.8 °F 80% 30.14 in 10.0 mi ESE 9.2 mph - N/A   Clear
11:13 AM 30.2 °F 24.3 °F 24.8 °F 80% 30.13 in 10.0 mi ESE 5.8 mph - N/A   Clear
11:33 AM 32.0 °F 26.4 °F 24.8 °F 75% 30.13 in 10.0 mi ESE 5.8 mph - N/A   Clear
11:53 AM 33.8 °F 29.6 °F 24.8 °F 70% 30.15 in 10.0 mi SE 4.6 mph - N/A   Clear
12:13 PM 33.8 °F - 24.8 °F 70% 30.16 in 10.0 mi Calm Calm - N/A   Clear
12:33 PM 33.8 °F 28.6 °F 24.8 °F 70% 30.15 in 10.0 mi SE 5.8 mph - N/A   Clear
12:53 PM 33.8 °F 28.6 °F 24.8 °F 70% 30.15 in 10.0 mi South 5.8 mph - N/A   Clear
1:13 PM 33.8 °F - 24.8 °F 70% 30.14 in 10.0 mi Calm Calm - N/A   Scattered Clouds
1:33 PM 35.6 °F - 24.8 °F 65% 30.13 in 10.0 mi Calm Calm - N/A   Scattered Clouds
1:53 PM 35.6 °F - 26.6 °F 70% 30.12 in 10.0 mi Calm Calm - N/A   Scattered Clouds
2:13 PM 35.6 °F 32.8 °F 24.8 °F 65% 30.12 in 10.0 mi South 3.5 mph - N/A   Scattered Clouds
2:33 PM 35.6 °F - 24.8 °F 65% 30.11 in 10.0 mi Calm Calm - N/A   Mostly Cloudy
2:53 PM 35.6 °F 32.8 °F 24.8 °F 65% 30.11 in 10.0 mi South 3.5 mph - N/A   Mostly Cloudy
3:13 PM 35.6 °F - 24.8 °F 65% 30.11 in 10.0 mi Calm Calm - N/A   Mostly Cloudy
3:33 PM 35.6 °F - 24.8 °F 65% 30.11 in 10.0 mi Calm Calm - N/A   Scattered Clouds
3:53 PM 35.6 °F - 24.8 °F 65% 30.10 in 10.0 mi Calm Calm - N/A   Clear
4:13 PM 35.6 °F - 24.8 °F 65% 30.10 in 10.0 mi Calm Calm - N/A   Scattered Clouds
4:33 PM 35.6 °F - 24.8 °F 65% 30.10 in 10.0 mi Calm Calm - N/A   Scattered Clouds
4:53 PM 35.6 °F - 24.8 °F 65% 30.10 in 10.0 mi Calm Calm - N/A   Mostly Cloudy
5:13 PM 35.6 °F - 24.8 °F 65% 30.10 in 10.0 mi Calm Calm - N/A   Mostly Cloudy
5:33 PM 35.6 °F 32.8 °F 26.6 °F 70% 30.10 in 10.0 mi NW 3.5 mph - N/A   Scattered Clouds
5:53 PM 35.6 °F 31.7 °F 26.6 °F 70% 30.11 in 10.0 mi NW 4.6 mph - N/A   Mostly Cloudy
6:13 PM 35.6 °F - 26.6 °F 70% 30.12 in 10.0 mi Calm Calm - N/A   Overcast
6:33 PM 35.6 °F - 26.6 °F 70% 30.12 in 10.0 mi Calm Calm - N/A   Overcast
6:54 PM 35.6 °F - 26.6 °F 70% 30.12 in 10.0 mi Calm Calm - N/A   Overcast
7:33 PM 35.6 °F - 24.8 °F 65% 30.13 in 10.0 mi Calm Calm - N/A   Overcast
7:53 PM 35.6 °F 31.7 °F 24.8 °F 65% 30.13 in 10.0 mi ENE 4.6 mph - N/A   Overcast
8:13 PM 35.6 °F 32.8 °F 26.6 °F 70% 30.13 in 10.0 mi East 3.5 mph - N/A   Overcast
8:33 PM 35.6 °F 32.8 °F 24.8 °F 65% 30.13 in 10.0 mi East 3.5 mph - N/A   Overcast
8:53 PM 35.6 °F 32.8 °F 24.8 °F 65% 30.13 in 10.0 mi East 3.5 mph - N/A   Overcast
9:33 PM 35.6 °F - 24.8 °F 65% 30.13 in 10.0 mi Calm Calm - N/A   Overcast
9:53 PM 35.6 °F 32.8 °F 24.8 °F 65% 30.13 in 10.0 mi ESE 3.5 mph - N/A   Overcast
10:13 PM 35.6 °F 32.8 °F 24.8 °F 65% 30.14 in 10.0 mi ESE 3.5 mph - N/A   Overcast
10:33 PM 35.6 °F - 26.6 °F 70% 30.14 in 10.0 mi Calm Calm - N/A   Overcast
10:53 PM 35.6 °F - 26.6 °F 70% 30.14 in 10.0 mi Calm Calm - N/A   Overcast
11:13 PM 35.6 °F 31.7 °F 26.6 °F 70% 30.14 in 10.0 mi ESE 4.6 mph - N/A   Overcast
11:33 PM 35.6 °F 32.8 °F 26.6 °F 70% 30.14 in 10.0 mi ESE 3.5 mph - N/A   Overcast
11:53 PM 35.6 °F 32.8 °F 24.8 °F 65% 30.15 in 10.0 mi ESE 3.5 mph - N/A   Overcast